Regional Weather Roundup
Issued by NWS

Home | Current Version | Previous Version | Graphics & Text | Print | Product List | Glossary On
Versions: 1 2 3 4 5 6 7 8 9 10 11 12 13 14 15 16 17 18 19 20 21 22 23 24 25 26 27 28 29 30 31 32 33 34 35 36 37 38 39 40 41 42 43 44 45 46 47 48 49 50
000
ASUS43 KLSX 220010
RWRMO

WEATHER SUMMARY FOR MISSOURI
NATIONAL WEATHER SERVICE SPRINGFIELD MO
700 PM CDT SAT APR 21 2018

NOTE: "FAIR" INDICATES FEW OR NO CLOUDS BELOW 12,000 FEET WITH NO
       SIGNIFICANT WEATHER AND/OR OBSTRUCTIONS TO VISIBILITY.
       CURRENT SKY AND/OR WEATHER CONDITIONS ARE NOT AVAILABLE FOR
       CHILLICOTHE AND FARMINGTON.

MOZ001>031-035>038-043-044-053-054-220100-
...NORTHERN AND WESTERN MISSOURI...

CITY           SKY/WX    TMP DP  RH WIND       PRES   REMARKS
KANSAS CTY INT CLOUDY    62  30  29 E17       30.12S
6HR MIN TEMP:  55; 6HR MAX TEMP:  64;

KANSAS C DTWN  CLOUDY    65  30  27 E12G21    30.09F
6HR MIN TEMP:  57; 6HR MAX TEMP:  67;

LEE`S SUMMIT   CLOUDY    63  30  28 E15G22    30.10F
6HR MIN TEMP:  57; 6HR MAX TEMP:  66;

ST JOSEPH      CLOUDY    60  32  34 E13G22    30.15R
6HR MIN TEMP:  55; 6HR MAX TEMP:  63;

CHILLICOTHE      N/A     59  29  31 E8        30.18F
6HR MIN TEMP:  59; 6HR MAX TEMP:  63;

KIRKSVILLE     CLOUDY    57  30  35 E10       30.23R
6HR MIN TEMP:  57; 6HR MAX TEMP:  62;


$$
MOZ066>068-077>081-088>096-101>105-220100-
...SOUTHWEST MISSOURI...

CITY           SKY/WX    TMP DP  RH WIND       PRES   REMARKS
SPRINGFIELD    CLOUDY    64  38  38 E7        30.05F
6HR MIN TEMP:  63; 6HR MAX TEMP:  68;

JOPLIN         LGT RAIN  54  53  97 W12       30.09R FOG
6HR MIN TEMP:  54; 6HR MAX TEMP:  65; 6HR PCP:  0.18;

BRANSON        CLOUDY    63  41  45 E9        30.03F

$$
MOZ032>034-039>042-045>050-055>058-069>072-220100-
...CENTRAL MISSOURI...

CITY           SKY/WX    TMP DP  RH WIND       PRES   REMARKS
COLUMBIA       CLOUDY    62  29  28 NE16      30.14F
6HR MIN TEMP:  62; 6HR MAX TEMP:  67;

JEFFERSON CITY CLOUDY    65  29  25 E8        30.14S
6HR MIN TEMP:  63; 6HR MAX TEMP:  67;

ROLLA          CLOUDY    63  34  33 E14G21    30.14R
6HR MIN TEMP:  63; 6HR MAX TEMP:  68;

SEDALIA        CLOUDY    63  30  28 NE15      30.13F
6HR MIN TEMP:  62; 6HR MAX TEMP:  69;

WHITEMAN AFB   CLOUDY    63  31  30 E16       30.06F
WARRENSBURG    CLOUDY    61  30  31 NE16G23   30.10F
OSAGE BEACH    MOCLDY    65  33  30 NE10      30.10F

$$
MOZ051-052-059>065-220100-
...EAST CENTRAL MISSOURI...

CITY           SKY/WX    TMP DP  RH WIND       PRES   REMARKS
ST LOUIS INTL  CLOUDY    63  32  31 E13       30.21R
6HR MIN TEMP:  62; 6HR MAX TEMP:  67;

SPIRIT OF STL  CLOUDY    64  34  32 E9        30.17F
6HR MIN TEMP:  63; 6HR MAX TEMP:  69;

ST CHARLES     CLOUDY    63  33  32 E13       30.20S
6HR MIN TEMP:  63; 6HR MAX TEMP:  68;


$$
MOZ072>076-082>087-097>100-106>115-220100-
...SOUTH CENTRAL AND SOUTHEAST MISSOURI...

CITY           SKY/WX    TMP DP  RH WIND       PRES   REMARKS
CAPE GIRARDEAU FAIR      67  41  38 NE6       30.16S
6HR MIN TEMP:  66; 6HR MAX TEMP:  72;

FARMINGTON     CLOUDY    63  39  41 E9        30.16F
6HR MIN TEMP:  63; 6HR MAX TEMP:  69;

POPLAR BLUFF   FAIR      68  40  35 E6        30.12F
6HR MIN TEMP:  68; 6HR MAX TEMP:  73;

WEST PLAINS    CLOUDY    65  34  31 E9        30.10F
6HR MIN TEMP:  65; 6HR MAX TEMP:  70;


$$



USA.gov is the U.S. government's official web portal to all federal, state and local government web resources and services.